Miscellaneous Local Product
Issued by NWS Hastings, NE

Home | Current Version | Previous Version | Text Only | Print | Product List | Glossary On
Versions: 1 2 3 4 5 6 7 8 9 10 11 12 13 14 15 16 17 18 19 20 21 22 23 24 25 26 27 28 29 30 31 32 33 34 35 36 37 38 39 40 41 42 43 44 45 46 47 48 49 50
000
AXUS43 KGID 231902
MISGRI

GID CWA HOURLY WEATHER ROUNDUP
NATIONAL WEATHER SERVICE HASTINGS NE
100 PM CST THU FEB 23 2017

NOTE: "FAIR" INDICATES FEW OR NO CLOUDS BELOW 12,000 FEET WITH NO
SIGNIFICANT WEATHER AND/OR OBSTRUCTIONS TO VISIBILITY.

...SOUTH CENTRAL NEBRASKA...

CITY           SKY/WX    TMP DP  RH WIND       PRES   REMARKS
GRAND ISLAND   CLOUDY    34  33  96 NE21G28   29.64F WCI  22
HASTINGS       CLOUDY    34  32  92 NE24      29.61F WCI  21
KEARNEY        CLOUDY    34  28  80 NE21G30   29.61F WCI  22
ORD            CLOUDY    32  26  78 NE16G24   29.67F WCI  21
YORK           CLOUDY    37  32  81 NE22      29.63F WCI  27
AURORA         CLOUDY    36  33  91 NE21      29.63F WCI  24
LEXINGTON      CLOUDY    32  31  94 NE20      29.61F WCI  20
HOLDREGE       CLOUDY    33  31  94 NE21G26   29.60S WCI  21
HEBRON         CLOUDY    41  33  73 NE17      29.57F

...NEBRASKA PANHANDLE...

CITY           SKY/WX    TMP DP  RH WIND       PRES   REMARKS
CHADRON        FOG       25  21  85 NE18      29.79F VSB 1/2 WCI  11
ALLIANCE       LGT SNOW  22  19  89 NE22G28   29.67F VSB 3/4 WCI   6
SCOTTSBLUFF    LGT SNOW  24  19  81 NE16      29.69S VSB 1   WCI  11
SIDNEY         LGT SNOW  25  22  88 NE16      29.60F FOG     WCI  12

...WESTERN AND NORTH CENTRAL NEBRASKA...

CITY           SKY/WX    TMP DP  RH WIND       PRES   REMARKS
VALENTINE      HVY SNOW  26  22  84 NE22G30   29.79F VSB 1/4 WCI  12
AINSWORTH      SNOW      27  26  96 NE21G28   29.76F VSB 1/4 WCI  13
ONEILL         LGT SNOW  30  29  94 NE22G28   29.76F VSB 3/4 WCI  17
BROKEN BOW     CLOUDY    30  27  88 NE24G35   29.62F WCI  16
IMPERIAL       FRZ RAIN  29  27  92 NE20      29.59F FOG     WCI  16
NORTH PLATTE   CLOUDY    31  24  75 NE20G29   29.61F WCI  19
MCCOOK         MIX PCPN  32  32 100 NE20      29.58F FOG     WCI  20

...EASTERN NEBRASKA...

CITY           SKY/WX    TMP DP  RH WIND       PRES   REMARKS
NORFOLK        MIX PCPN  33  28  81 NE17G29   29.69F WCI  22
SO SIOUX CITY  LGT RAIN  38  31  76 N18G28    29.75F WCI  28
TEKAMAH        CLOUDY    38  33  82 NE20G26   29.70F WCI  28
COLUMBUS       CLOUDY    36  30  80 NE24      29.68F WCI  24
ALBION         CLOUDY    34  30  85 NE17G25   29.69F WCI  23
OMAHA EPPLEY   CLOUDY    42  34  73 NE20      29.65F
OFFUTT AFB     CLOUDY    43  35  74 NE13G23   29.64F
MILLARD        CLOUDY    43  36  75 NE12G20   29.65F
LINCOLN        CLOUDY    42  34  73 NE16      29.65F
NEBRASKA CITY  CLOUDY    42  35  74 E13       29.60F
BEATRICE       CLOUDY    41  36  81 NE14      29.60F
FALLS CITY     MOSUNNY   49  39  68 E16G28    29.54F

...NORTHERN KANSAS...

CITY           SKY/WX    TMP DP  RH WIND       PRES   REMARKS
GOODLAND       CLOUDY    32  32 100 NE17      29.51F WCI  21
HILL CITY      CLOUDY    41  34  76 NE18G24   29.52F
NORTON         CLOUDY    36  28  75 NE17G23   29.55F WCI  25
PHILLIPSBURG   CLOUDY    39  32  75 NE16G23   29.56F WCI  30
SMITH CENTER   CLOUDY    39  32  75 NE16G26   29.53F WCI  30
HAYS           MOSUNNY   56  38  50 E20       29.45F
RUSSELL        PTSUNNY   56  39  53 NE16      29.44F
CONCORDIA      PTSUNNY   49  37  63 NE20G26   29.50F
SALINA         MOSUNNY   64  44  48 NE8       29.46F
TOPEKA         MOSUNNY   60  46  59 E13       29.48F



USA.gov is the U.S. government's official web portal to all federal, state and local government web resources and services.